Wind_Speed
11 11 11 11 10 10 10 10 10 10 10 11 10 10 10 9 9 9 10 9 9 8 8 7 6 5 5 6 6 6 6 6 6 7 7 7 7 7 6 6 5 5
11 11 11 11 10 9 10 9 9 9 10 11 11 11 10 10 10 10 10 9 9 9 9 7 7 6 6 6 6 5 5 6 6 6 6 6 6 6 6 6 5 5
12 12 11 11 10 9 9 9 9 9 10 11 12 12 12 11 11 10 10 10 10 10 10 8 8 7 6 6 6 6 6 6 6 6 6 5 6 6 6 6 6 5
13 12 12 11 11 10 10 9 9 8 9 11 12 11 12 11 10 10 10 10 10 10 10 9 9 8 8 7 7 7 6 6 6 6 5 5 6 6 6 6 6 6
14 13 12 12 12 11 11 11 10 9 9 10 10 11 11 11 11 10 9 9 9 9 9 9 9 8 8 8 8 7 7 6 6 6 5 6 6 6 6 6 6 6
15 15 14 13 13 13 12 12 12 11 11 11 10 11 12 12 11 10 10 10 9 9 9 9 9 8 8 8 8 8 7 7 6 6 6 6 6 6 6 6 6 6
17 17 16 15 15 15 14 14 14 13 13 12 12 12 12 12 12 11 11 11 10 10 9 9 10 9 9 8 8 8 8 7 7 7 7 6 6 6 6 6 6 6
18 18 17 17 17 17 17 16 16 16 15 15 14 13 13 13 13 13 13 12 11 11 10 10 11 10 10 10 9 8 8 8 8 8 7 7 7 7 7 7 7 7
19 19 18 18 18 18 18 18 18 17 17 17 16 15 15 15 15 15 14 14 13 12 11 12 12 12 11 10 10 9 9 8 8 8 8 8 8 8 8 7 7 8
22 21 21 20 20 19 19 19 19 18 18 18 18 18 18 17 17 17 16 15 14 13 13 13 13 12 12 11 11 11 10 10 10 9 9 9 9 9 8 8 8 8
24 23 23 23 23 22 21 21 20 19 19 19 19 19 19 19 19 18 18 17 16 16 15 15 14 13 13 12 12 12 11 11 11 11 10 10 10 10 10 10 10 9
25 25 25 25 25 24 23 23 22 21 20 20 19 19 20 20 20 20 19 19 18 18 17 17 16 15 14 14 13 13 13 12 12 12 12 11 11 11 11 11 11 11
24 24 24 24 25 25 24 24 24 23 22 21 20 20 20 20 21 21 21 21 20 20 19 18 17 16 16 15 14 14 14 13 14 14 14 14 13 13 13 13 12 12
22 22 23 23 23 24 24 24 24 24 23 22 21 21 21 21 21 22 22 22 22 21 20 19 18 17 17 17 16 16 16 16 16 16 16 15 15 15 15 15 14 13
24 24 24 24 23 23 23 23 23 23 23 23 23 23 23 23 23 23 23 23 23 22 21 20 20 19 20 20 19 18 18 18 18 18 18 18 18 17 17 16 15 15
27 28 28 26 25 24 23 23 23 23 24 24 24 24 24 25 24 24 24 24 24 23 22 21 22 22 23 22 21 21 21 20 20 19 19 20 20 19 19 18 17 16
29 30 29 28 26 24 24 23 23 24 24 23 23 23 23 23 24 24 24 24 24 23 23 23 24 24 24 23 23 23 22 22 22 21 21 21 21 21 20 20 19 18
30 31 30 28 27 26 25 24 24 24 24 23 22 22 21 21 22 22 23 22 23 23 23 24 25 25 25 25 25 24 24 24 24 23 22 22 23 23 22 21 21 20
32 33 32 31 30 28 26 25 24 25 25 24 23 22 22 22 22 22 22 22 22 22 23 24 25 25 25 25 25 25 25 25 25 25 24 24 25 25 25 25 24 24
31 33 35 34 33 31 29 28 27 26 26 25 24 23 23 23 23 23 23 22 22 23 23 23 24 24 24 25 25 25 25 26 25 26 26 27 27 26 27 28 28 28
26 29 31 34 35 34 33 31 29 29 28 28 26 24 23 22 23 24 24 23 23 23 23 23 23 24 24 24 25 26 26 27 27 27 28 29 29 28 28 29 31 31
23 24 25 28 31 33 34 32 31 31 32 31 29 26 25 25 27 27 27 26 26 25 25 25 25 25 25 25 25 27 28 29 29 30 31 32 31 31 31 32 33 33
22 23 22 22 24 27 29 30 31 33 34 33 30 28 28 29 30 30 30 30 30 29 28 28 28 28 28 28 28 29 30 30 31 33 35 35 34 33 34 35 34 34
21 20 20 20 20 22 23 24 26 30 32 33 32 32 32 32 32 32 33 34 34 33 33 33 33 32 32 32 32 32 33 34 35 36 38 37 35 34 35 35 34 33
18 18 18 19 20 21 21 22 23 25 28 29 30 30 31 32 32 33 34 35 36 36 36 36 36 36 36 35 35 36 37 37 38 39 39 38 36 34 34 33 31 30
20 20 20 20 21 21 22 23 23 23 24 24 24 24 24 25 27 29 31 32 33 34 35 37 38 38 37 38 39 40 41 41 40 41 40 37 35 34 32 30 28 28
Wind_Direction
178 173 173 174 176 177 177 176 178 182 182 183 186 185 182 183 184 182 179 176 177 180 180 177 176 179 183 180 179 175 168 165 165 162 158 152 152 155 154 154 147 141
185 179 175 175 175 177 181 178 178 184 184 183 187 189 189 191 191 191 190 186 183 183 184 184 185 191 197 193 191 189 182 182 180 171 166 164 165 168 166 165 169 170
190 187 183 179 177 178 182 181 181 187 186 184 188 190 191 193 194 196 197 194 190 187 187 191 193 196 199 195 193 197 200 203 200 190 185 184 187 191 189 188 194 201
196 193 190 185 183 185 186 185 186 188 189 191 191 189 189 192 195 198 201 201 197 192 191 194 198 198 196 192 193 197 204 210 211 209 206 204 206 213 215 216 218 223
205 202 199 194 194 195 194 192 192 192 196 199 197 191 189 192 195 197 202 207 206 201 199 200 203 204 201 196 195 198 203 208 212 218 222 220 220 225 231 235 238 238
213 214 212 207 205 206 205 203 201 199 203 207 205 199 197 199 201 201 203 208 212 212 210 208 210 212 211 208 204 204 209 212 216 220 225 230 234 237 243 247 248 246
217 219 221 218 214 214 212 211 210 208 208 210 211 209 208 207 207 206 206 208 211 215 217 216 217 216 216 217 216 215 217 218 221 227 232 240 245 247 250 254 256 255
221 221 224 224 222 219 217 215 215 214 213 213 214 214 214 214 212 210 209 210 211 214 216 217 220 222 218 216 217 220 225 227 226 228 233 240 246 248 252 256 257 259
224 222 223 226 226 223 221 218 216 216 217 216 216 216 216 217 217 215 213 214 214 215 217 218 220 224 223 220 218 218 224 230 234 235 235 237 239 244 252 258 258 258
224 224 223 224 227 226 224 224 220 217 219 220 219 218 217 218 220 220 219 219 221 221 221 223 224 225 226 226 225 223 224 228 233 237 239 241 243 244 248 252 253 253
223 224 223 223 225 225 225 226 224 220 220 222 223 222 221 221 222 224 223 223 225 226 226 228 230 230 232 232 231 231 232 234 235 237 238 243 250 254 257 257 257 257
222 222 223 224 225 225 225 227 226 223 222 223 224 225 225 225 226 227 228 227 228 229 230 231 232 234 236 238 238 237 237 238 240 241 242 243 247 254 261 264 266 268
224 225 226 226 228 228 227 228 228 227 225 224 225 227 229 230 231 232 233 234 233 232 233 234 236 238 240 241 244 247 248 248 247 248 248 247 246 248 254 260 265 269
227 229 230 228 230 232 231 231 231 230 228 226 226 228 231 232 232 235 236 237 237 236 237 238 239 241 243 244 245 248 251 254 255 256 255 254 252 250 251 254 258 264
224 228 229 227 226 229 232 231 231 230 229 228 225 225 228 231 231 233 235 236 237 238 239 240 240 241 242 242 242 243 245 248 252 256 258 260 259 258 256 256 258 262
224 228 230 227 224 224 227 229 228 227 228 230 229 227 226 229 232 233 235 237 238 239 240 241 242 243 243 244 245 246 245 245 247 249 254 258 260 260 260 260 261 262
228 232 232 231 228 224 223 225 226 226 226 229 234 235 232 230 231 234 236 238 240 241 242 243 244 246 247 248 249 250 251 250 250 250 251 254 257 259 259 260 261 261
230 234 235 236 235 231 228 226 226 226 226 226 229 234 236 235 234 235 237 237 239 240 240 241 243 246 247 248 250 253 254 255 256 256 257 259 262 262 261 259 259 258
231 234 236 238 238 237 235 232 230 229 229 229 227 228 232 236 237 237 236 236 238 239 239 239 241 244 246 249 252 255 257 259 259 259 261 264 266 266 265 263 261 259
229 232 235 237 237 236 236 236 235 235 234 232 230 228 229 236 240 241 240 240 240 240 239 239 240 242 244 248 252 256 260 261 261 261 263 267 269 268 267 266 265 264
229 232 234 236 236 234 235 235 234 236 239 237 235 233 232 235 243 247 247 246 245 245 245 244 244 245 246 248 253 257 258 259 261 264 266 271 274 274 271 268 267 266
229 233 234 236 237 236 237 238 235 233 237 239 239 240 239 239 243 248 250 249 248 248 249 250 250 251 252 254 257 260 261 262 265 269 269 271 273 274 272 271 269 268
225 230 231 234 239 240 242 245 243 237 236 239 242 243 243 242 242 245 248 250 250 251 252 252 251 252 255 257 259 262 266 268 269 270 270 270 269 268 268 270 271 270
224 227 231 234 238 240 242 247 247 242 240 242 244 243 243 244 245 246 248 250 250 250 251 252 252 252 254 256 259 262 266 267 268 268 268 268 267 267 267 268 268 268
231 232 233 236 239 242 243 244 246 246 245 245 245 244 244 246 248 248 249 250 250 249 249 251 253 254 255 257 260 262 264 266 268 269 268 267 266 267 268 267 266 266
246 246 243 243 242 243 245 244 243 245 247 248 249 248 246 246 248 250 250 251 251 251 250 250 252 254 255 258 260 262 263 265 266 265 265 264 263 264 264 261 261 265
Height
5942 5942 5943 5944 5945 5945 5946 5946 5947 5947 5948 5948 5949 5949 5950 5950 5951 5951 5951 5952 5952 5952 5953 5953 5953 5954 5954 5955 5955 5955 5955 5955 5955 5956 5956 5955 5955 5955 5955 5955 5955 5955
5941 5942 5942 5943 5944 5945 5945 5946 5946 5947 5948 5948 5949 5949 5949 5950 5950 5950 5951 5951 5951 5952 5952 5953 5953 5953 5954 5954 5955 5955 5955 5955 5955 5955 5955 5955 5955 5954 5954 5954 5954 5954
5940 5941 5942 5942 5943 5944 5945 5945 5946 5946 5947 5948 5948 5949 5949 5949 5950 5950 5950 5951 5951 5951 5952 5952 5952 5953 5953 5953 5954 5954 5955 5955 5955 5955 5955 5954 5954 5954 5954 5953 5953 5954
5938 5939 5941 5942 5942 5943 5944 5945 5945 5946 5946 5947 5948 5948 5949 5949 5949 5950 5950 5950 5951 5951 5951 5951 5952 5952 5952 5953 5953 5954 5954 5954 5954 5954 5954 5954 5954 5953 5953 5953 5953 5953
5937 5938 5939 5940 5941 5942 5943 5944 5945 5945 5946 5946 5947 5948 5948 5948 5949 5949 5950 5950 5950 5950 5951 5951 5951 5951 5952 5952 5952 5953 5953 5953 5953 5953 5953 5953 5953 5953 5953 5953 5953 5953
5936 5937 5938 5939 5940 5941 5942 5943 5944 5944 5945 5945 5946 5947 5947 5948 5948 5948 5949 5949 5950 5950 5950 5950 5950 5951 5951 5951 5951 5952 5952 5952 5952 5953 5953 5953 5953 5953 5953 5952 5952 5952
5934 5935 5936 5937 5938 5939 5940 5941 5942 5943 5944 5945 5945 5946 5946 5947 5947 5948 5948 5948 5949 5949 5949 5949 5949 5950 5950 5951 5951 5951 5951 5951 5952 5952 5952 5952 5952 5952 5952 5952 5952 5952
5932 5933 5934 5935 5936 5937 5938 5939 5941 5942 5942 5943 5944 5945 5946 5946 5946 5947 5947 5947 5948 5948 5948 5948 5949 5949 5949 5949 5950 5950 5951 5951 5951 5951 5951 5952 5952 5952 5952 5952 5952 5951
5929 5931 5932 5933 5934 5935 5936 5937 5938 5940 5941 5941 5942 5943 5944 5945 5945 5946 5946 5947 5947 5947 5947 5947 5947 5948 5948 5948 5948 5949 5949 5950 5950 5950 5951 5951 5951 5951 5951 5951 5951 5951
5926 5928 5929 5930 5932 5933 5934 5935 5936 5937 5939 5940 5941 5942 5942 5943 5944 5945 5945 5945 5945 5945 5945 5946 5946 5946 5947 5947 5947 5947 5947 5948 5949 5949 5949 5950 5950 5950 5950 5950 5950 5950
5922 5924 5926 5927 5929 5930 5932 5933 5934 5935 5936 5937 5939 5940 5941 5941 5942 5943 5943 5944 5944 5944 5944 5944 5945 5945 5945 5946 5946 5946 5946 5947 5947 5947 5948 5948 5948 5949 5949 5949 5949 5949
5919 5920 5922 5924 5925 5927 5928 5930 5931 5932 5934 5935 5936 5938 5939 5939 5940 5941 5942 5942 5942 5943 5943 5943 5944 5944 5944 5945 5945 5945 5945 5946 5946 5946 5946 5946 5947 5947 5947 5948 5948 5948
5917 5918 5919 5921 5923 5924 5925 5927 5928 5930 5931 5932 5934 5935 5936 5938 5938 5939 5940 5940 5941 5941 5942 5942 5943 5943 5943 5944 5944 5945 5945 5945 5945 5945 5945 5945 5945 5945 5946 5946 5946 5947
5915 5916 5918 5919 5920 5921 5922 5924 5926 5927 5929 5930 5931 5932 5934 5935 5936 5937 5938 5938 5939 5940 5941 5941 5942 5942 5942 5942 5942 5943 5943 5943 5943 5944 5944 5944 5944 5944 5944 5944 5944 5945
5911 5912 5914 5916 5917 5918 5919 5921 5923 5925 5925 5926 5928 5929 5930 5931 5933 5934 5935 5935 5936 5937 5938 5939 5940 5940 5939 5939 5940 5940 5940 5940 5941 5941 5942 5942 5942 5943 5942 5942 5942 5943
5909 5910 5911 5912 5913 5914 5916 5918 5920 5921 5922 5923 5924 5925 5926 5928 5929 5930 5931 5932 5933 5934 5935 5936 5937 5937 5937 5937 5938 5938 5938 5938 5938 5938 5939 5940 5940 5941 5941 5941 5941 5941
5906 5907 5909 5910 5910 5911 5913 5914 5916 5918 5919 5920 5921 5922 5923 5924 5926 5927 5928 5929 5930 5932 5933 5933 5933 5934 5935 5935 5936 5936 5936 5936 5936 5936 5936 5937 5938 5938 5939 5939 5939 5939
5902 5904 5905 5907 5908 5908 5909 5911 5913 5914 5915 5917 5918 5918 5919 5921 5922 5924 5925 5926 5927 5929 5929 5930 5930 5931 5932 5933 5933 5933 5934 5934 5934 5934 5934 5935 5935 5936 5937 5937 5937 5936
5898 5899 5901 5902 5904 5906 5907 5908 5910 5911 5912 5914 5915 5915 5916 5917 5919 5920 5922 5923 5924 5925 5926 5926 5926 5927 5929 5929 5930 5931 5931 5931 5932 5932 5932 5932 5933 5933 5934 5934 5934 5934
5894 5894 5896 5898 5900 5903 5904 5905 5906 5908 5910 5911 5912 5912 5913 5914 5915 5917 5919 5920 5921 5922 5922 5923 5923 5924 5925 5926 5927 5928 5928 5928 5928 5929 5929 5929 5929 5930 5930 5931 5930 5931
5890 5891 5892 5893 5896 5898 5899 5901 5903 5906 5907 5908 5908 5910 5910 5911 5912 5914 5915 5917 5918 5919 5919 5919 5920 5921 5921 5922 5923 5924 5925 5924 5925 5926 5926 5926 5926 5926 5926 5926 5926 5927
5887 5888 5889 5891 5893 5895 5897 5899 5901 5903 5904 5904 5905 5907 5907 5907 5909 5911 5912 5914 5915 5916 5916 5916 5917 5917 5918 5919 5920 5920 5921 5921 5921 5922 5922 5922 5922 5922 5922 5922 5922 5922
5884 5885 5887 5889 5891 5893 5895 5897 5898 5899 5899 5899 5902 5904 5904 5903 5905 5907 5909 5910 5911 5912 5913 5913 5914 5914 5915 5915 5916 5916 5917 5918 5918 5919 5918 5918 5919 5918 5918 5918 5918 5918
5882 5883 5884 5886 5888 5890 5891 5893 5894 5894 5894 5895 5897 5899 5900 5900 5901 5903 5904 5905 5907 5908 5909 5909 5910 5910 5911 5911 5912 5912 5912 5913 5914 5914 5914 5914 5914 5914 5914 5914 5914 5914
5880 5881 5882 5883 5885 5886 5887 5888 5890 5890 5891 5891 5892 5894 5896 5897 5897 5899 5899 5900 5901 5902 5904 5905 5905 5905 5906 5907 5907 5908 5908 5908 5908 5908 5909 5909 5910 5910 5909 5909 5909 5909
5878 5879 5880 5881 5882 5883 5884 5885 5886 5887 5887 5888 5889 5891 5892 5893 5894 5895 5896 5896 5897 5897 5899 5900 5900 5900 5902 5902 5902 5903 5903 5903 5903 5903 5903 5904 5905 5905 5905 5905 5905 5905